Miscellaneous Local Product
Issued by NWS North Platte, NE

Home | Current Version | Previous Version | Text Only | Print | Product List | Glossary On
Versions: 1 2 3 4 5 6 7 8 9 10 11 12 13 14 15 16 17 18 19 20 21 22 23 24 25 26 27 28 29 30 31 32 33 34 35 36 37 38 39 40 41 42 43 44 45 46 47 48 49 50
000
AXUS43 KLBF 300510
MISLBF


WESTERN AND NORTH CENTRAL NEBRASKA HOURLY WEATHER ROUNDUP
NATIONAL WEATHER SERVICE NORTH PLATTE NE
1200 AM CDT WED JUL 30 2014

***STATIONS NOT REPORTING VARIABLES SUCH AS SKY/WEATHER OR
PRESSURE ARE PROVIDED BY THE NEBRASKA DEPARTMENT OF
ROADS...RAWS...AND APRS NETWORKS...AND ARE NOT UNDER
NATIONAL WEATHER SERVICE QUALITY CONTROL***

...OBSERVATIONS IN AND NEAR THE EASTERN PANHANDLE OF NEBRASKA...

CITY           SKY/WX    TMP DP  RH WIND       PRES   REMARKS
PINE RIDGE     MOCLDY    55  53  93 E3        30.23S
CHADRON        CLOUDY    60  55  83 CALM      30.23S
ALLIANCE       CLOUDY    66  54  65 E7        30.25R
SIDNEY         LGT RAIN  63  60  90 NW7       30.28R FOG
WHITECLAY        N/A     54  51  89 CALM        N/A
RUSHVILLE        N/A     59  53  78 NE5         N/A
GORDON           N/A     63  56  77 S3          N/A
CRESCENT LAKE    N/A     65  57  75 NE6         N/A
LISCO            N/A     70  64  80 W5          N/A
BIG SPRINGS      N/A     66  60  81 SE6         N/A
$$

...OBSERVATIONS IN NORTH CENTRAL NEBRASKA...

CITY           SKY/WX    TMP DP  RH WIND       PRES   REMARKS
VALENTINE      MOCLDY    59  50  72 CALM      30.20S
THEDFORD       CLOUDY    64  57  77 CALM      30.22S
AINSWORTH      MOCLDY    58  53  85 CALM      30.20S
O`NEILL        PTCLDY    62  55  76 S3        30.18S
ORD            MOCLDY    62  59  90 CALM      30.17S
BROKEN BOW     CLOUDY    67  59  75 CALM      30.19R
BROWNLEE         N/A     66  51  58 CALM        N/A
SPRINGVIEW       N/A     55  49  82 CALM        N/A
DUNNING          N/A     67  61  81 CALM        N/A
ROSE             N/A     67  61  81 CALM        N/A
NEWPORT          N/A     62  58  87 S6          N/A
SARGENT          N/A     63  58  84 CALM        N/A
COMSTOCK         N/A     68  64  84 S5          N/A
CHAMBERS         N/A     61  55  82 CALM        N/A
$$

...OBSERVATIONS IN SOUTHWEST NEBRASKA AND FAR NORTHEAST COLORADO...

CITY           SKY/WX    TMP DP  RH WIND       PRES   REMARKS
WRAY             N/A    N/A N/A N/A W5        30.20F
HOLYOKE        LGT RAIN  64  61  88 SE3       30.23S
IMPERIAL       CLOUDY    71  58  63 E12       30.19R
OGALLALA       CLOUDY    67  60  78 E3        30.21S
NORTH PLATTE   CLOUDY    66  60  81 E6        30.19S
MCCOOK         CLOUDY    70  58  65 E12       30.15S
LEXINGTON      CLOUDY    69  60  73 E6        30.17S
PAXTON           N/A     68  63  83 CALM        N/A
SUTHERLAND       N/A     69  65  88 E3          N/A
BRADY            N/A     66  60  81 CALM        N/A
CALLAWAY         N/A     66  62  87 E5          N/A
$$

...SOME WEATHER OBSERVATIONS FROM AROUND THE REGION...

CITY           SKY/WX    TMP DP  RH WIND       PRES   REMARKS
DENVER         RAIN      59  58  96 CALM      30.27F FOG
LARAMIE        LGT RAIN  54  52  93 NE7       30.37F
CHEYENNE       LGT RAIN  57  55  93 NE9       30.33F
SCOTTSBLUFF    LGT RAIN  65  64  97 W3        30.26F
RAPID CITY     PTCLDY    60  53  77 SW6       30.21F
PIERRE         CLEAR     62  53  72 NE6       30.14S
WINNER         FAIR      61  50  67 S6        30.17R
SIOUX FALLS    CLEAR     60  55  83 CALM      30.14S
OMAHA          CLEAR     65  58  78 CALM      30.13F
GRAND ISLAND   CLOUDY    68  60  75 CALM      30.17S
KANSAS CITY    PTCLDY    67  59  75 NE7       30.12R
WICHITA        CLOUDY    73  62  68 E9        30.09S
HAYS           CLOUDY    73  55  53 E10       30.12S
LIBERAL        CLOUDY    68  61  77 SE8       30.13S
GOODLAND       TSTM      66  65  96 SW9       30.17S
$$



USA.gov is the U.S. government's official web portal to all federal, state and local government web resources and services.